Flag for South Africa Weather past 2 weeks in Port Elizabeth, South Africa

Now
52 °F

Clear.


Feels Like: 52 °F
Forecast: 53 / 65 °F
Wind: 1 mph from North

Location: Port Elizabeth Airport

Current Time: Oct 2, 2014 at 1:33:15 AM

Latest Report: Oct 2, 2014 at 1:00 AM


Visibility: 10 mi

Pressure: 30.33 "Hg

Humidity: 88%

Dew point: 48 °F

Location of Port ElizabethLocation

Historic Weather in Port Elizabeth — Graph

°F

Port Elizabeth temperature yesterday

Maximum temperature yesterday: 68 °F (at 3:00 PM)
Minimum temperature yesterday: 55 °F (at 11:00 PM)
Average temperature yesterday: 60 °F

Past Weeks' High & Low Weather Summary

 TemperatureHumidityPressure
High77 °F (Sep 23, 12:00 PM)94% (Sep 21, 12:00 AM)30.39 "Hg (Sep 21, 12:00 AM)
Low43 °F (Sep 21, 6:00 AM)33% (Sep 18, 11:00 AM)29.56 "Hg (Sep 17, 4:00 PM)
Average61 °F76%30.08 "Hg
* Reported Midnight between Sep 16 and Sep 17 — Midnight between Oct 1 and Oct 2, Port Elizabeth, Weather by CustomWeather, © 2014

Note: Actual official high and low records may vary slightly from our data, if they occured in-between our weather recording intervals... More about our weather records

Advertising

Port Elizabeth weather history for previous 24 hours

 ConditionsComfort  
Time TempWeatherWind HumidityBarometerVisibility
12:00 AM
Oct 2
55 °FPassing clouds.3 mph88%30.36 "HgN/A
11:00 PM
Oct 1
55 °FPassing clouds.No wind88%30.36 "HgN/A
10:00 PM61 °FPassing clouds.3 mph83%30.36 "HgN/A
9:01 PM59 °FPassing clouds.No wind82%30.36 "HgN/A
8:00 PM57 °FPassing clouds.2 mph82%30.33 "HgN/A
7:00 PM59 °FClear.5 mph77%30.33 "Hg10 mi
6:00 PM63 °FPassing clouds.6 mph73%30.33 "HgN/A
5:00 PM64 °FScattered clouds.9 mph64%30.33 "HgN/A
4:00 PM66 °FPassing clouds.12 mph64%30.30 "HgN/A
3:00 PM68 °FPassing clouds.10 mph60%30.30 "HgN/A
9:00 AM63 °FPartly sunny.1 mph77%30.33 "HgN/A
8:01 AM63 °FPartly sunny.3 mph77%30.33 "HgN/A
7:00 AM59 °FPartly sunny.1 mph88%30.30 "HgN/A
6:00 AM57 °FPartly sunny.7 mph88%30.30 "HgN/A
5:00 AM59 °FPartly sunny.8 mph88%30.27 "HgN/A
4:00 AM57 °FPassing clouds.3 mph88%30.24 "HgN/A
3:00 AM57 °FRain showers. Partly cloudy.7 mph94%30.24 "Hg3 mi
2:00 AM57 °FPassing clouds.3 mph94%30.24 "HgN/A
1:00 AM59 °FPassing clouds.6 mph88%30.24 "HgN/A
Weather by CustomWeather, © 2014

See weather overviewHow to use our weather pages